Location: Newark
(51.7378°N, 19.8125°E)
Time: 11:19:37
(UTC+00:00)

Envisat - Pass Details

Date: 14 December 2019
Orbit: 764 x 766 km, 98.1° (Epoch: 18 January)

Event Time Altitude Azimuth Distance (km) Brightness Sun altitude
Rises 15:10:18 0° 128° (SE) 3,228 6.0 -5.9°
Reaches altitude 10° 15:12:53 10° 116° (ESE) 2,305 5.2 -6.3°
Maximum altitude 15:17:05 27° 60° (ENE) 1,451 3.9 -6.8°
Drops below altitude 10° 15:21:18 10° 4° (N) 2,317 5.2 -7.4°
Sets 15:23:54 0° 353° (N) 3,248 6.0 -7.8°
